TimeCST,TemperatureF,Dew PointF,Humidity,Sea Level PressureIn,VisibilityMPH,Wind Direction,Wind SpeedMPH,Gust SpeedMPH,PrecipitationIn,Events,Conditions,WindDirDegrees,DateUTC
12:51 AM,41.0,39.2,93,29.87,5.0,SE,17.3,-,0.00,,Overcast,140,2013-02-10 06:51:00
12:53 AM,41.0,39.9,96,29.89,4.0,SE,16.1,-,0.00,,Overcast,140,2013-02-10 06:53:00
1:12 AM,42.8,39.2,87,29.87,5.0,SE,15.0,-,N/A,,Overcast,140,2013-02-10 07:12:00
1:53 AM,43.0,42.1,97,29.85,4.0,SSE,15.0,-,N/A,,Overcast,150,2013-02-10 07:53:00
2:24 AM,42.8,42.8,100,29.81,3.0,SE,13.8,-,N/A,,Overcast,140,2013-02-10 08:24:00
2:53 AM,44.1,43.0,96,29.78,3.0,SE,11.5,-,N/A,,Overcast,140,2013-02-10 08:53:00
3:53 AM,48.0,46.9,96,29.73,3.0,SSE,11.5,21.9,N/A,,Overcast,150,2013-02-10 09:53:00
4:30 AM,50.0,48.2,94,29.74,2.5,ESE,10.4,-,0.00,Rain-Thunderstorm,Light Rain,110,2013-02-10 10:30:00
4:53 AM,48.9,48.9,100,29.75,2.5,SSE,6.9,-,0.00,Thunderstorm,Overcast,150,2013-02-10 10:53:00
5:11 AM,48.2,48.2,100,29.75,1.8,Calm,Calm,-,0.03,Rain-Thunderstorm,Heavy Thunderstorms and Rain,0,2013-02-10 11:11:00
5:27 AM,48.2,48.2,100,29.77,2.0,Calm,Calm,-,0.07,Rain-Thunderstorm,Heavy Thunderstorms and Rain,0,2013-02-10 11:27:00
5:40 AM,46.4,46.4,100,29.78,1.2,North,5.8,-,0.21,Rain-Thunderstorm,Heavy Thunderstorms and Rain,360,2013-02-10 11:40:00
5:46 AM,46.4,46.4,100,29.77,2.0,NE,4.6,-,0.23,Rain-Thunderstorm,Thunderstorms and Rain,40,2013-02-10 11:46:00
5:53 AM,46.9,46.0,97,29.77,2.0,East,5.8,-,0.33,Rain-Thunderstorm,Heavy Thunderstorms and Rain,100,2013-02-10 11:53:00
5:58 AM,46.4,46.4,100,29.76,1.8,ESE,9.2,-,0.03,Rain-Thunderstorm,Heavy Thunderstorms and Rain,120,2013-02-10 11:58:00
6:08 AM,48.2,48.2,100,29.74,3.0,ESE,9.2,-,0.07,Rain-Thunderstorm,Heavy Thunderstorms and Rain,120,2013-02-10 12:08:00
6:20 AM,50.0,48.2,94,29.75,5.0,SSE,13.8,-,0.10,Rain,Rain,150,2013-02-10 12:20:00
6:53 AM,50.0,48.9,96,29.75,4.0,SSE,15.0,-,0.22,Rain,Heavy Rain,160,2013-02-10 12:53:00
7:32 AM,48.2,48.2,100,29.71,10.0,SSW,4.6,-,0.11,Rain,Light Rain,210,2013-02-10 13:32:00
7:53 AM,50.0,48.0,93,29.71,10.0,SSE,11.5,-,0.11,,Overcast,160,2013-02-10 13:53:00
8:53 AM,50.0,48.9,96,29.71,10.0,SE,9.2,-,N/A,,Overcast,130,2013-02-10 14:53:00
9:03 AM,50.0,48.2,94,29.71,9.0,SE,9.2,-,N/A,,Overcast,130,2013-02-10 15:03:00
9:53 AM,53.1,52.0,96,29.71,10.0,SSE,9.2,-,N/A,,Overcast,160,2013-02-10 15:53:00
10:27 AM,57.2,51.8,82,29.69,10.0,South,11.5,18.4,N/A,,Partly Cloudy,180,2013-02-10 16:27:00
10:53 AM,59.0,51.1,75,29.69,10.0,SSW,12.7,24.2,N/A,,Scattered Clouds,200,2013-02-10 16:53:00
11:53 AM,62.1,46.9,58,29.68,10.0,SW,12.7,26.5,N/A,,Partly Cloudy,220,2013-02-10 17:53:00
12:53 PM,62.1,37.9,41,29.66,10.0,SW,15.0,29.9,N/A,,Clear,230,2013-02-10 18:53:00
1:53 PM,63.0,28.0,27,29.66,10.0,WSW,11.5,28.8,N/A,,Clear,240,2013-02-10 19:53:00
2:53 PM,62.1,32.0,32,29.67,10.0,WSW,16.1,24.2,N/A,,Clear,240,2013-02-10 20:53:00
3:53 PM,60.1,24.1,25,29.71,10.0,WSW,17.3,28.8,N/A,,Clear,250,2013-02-10 21:53:00
4:53 PM,57.9,26.1,30,29.74,10.0,West,10.4,21.9,N/A,,Clear,260,2013-02-10 22:53:00
5:53 PM,55.0,26.1,33,29.78,10.0,West,9.2,-,N/A,,Clear,270,2013-02-10 23:53:00
6:53 PM,52.0,27.0,38,29.82,10.0,West,4.6,-,N/A,,Clear,260,2013-02-11 00:53:00
7:53 PM,52.0,28.0,40,29.85,10.0,WSW,5.8,17.3,N/A,,Clear,240,2013-02-11 01:53:00
8:53 PM,52.0,27.0,38,29.88,10.0,West,12.7,20.7,N/A,,Clear,280,2013-02-11 02:53:00
9:53 PM,48.9,26.1,41,29.93,10.0,WNW,11.5,25.3,N/A,,Clear,290,2013-02-11 03:53:00
10:53 PM,44.1,25.0,47,29.98,10.0,WNW,12.7,25.3,N/A,,Clear,290,2013-02-11 04:53:00
11:53 PM,42.1,24.1,49,30.00,10.0,WNW,16.1,28.8,N/A,,Clear,290,2013-02-11 05:53:00